WE3C Weather Reports


Display with metric or nautical units.
time (UTC)temp
F
wind
direction
speed
MPH
gust
MPH
rain 1hr
in
rain 24hr
in
rain mn
in
humidity
%
barometer
mb
20260510043045 51 360 0.0 0.0 0.00 0.00 0.00 71 1016.1
20260510041535 51 136 0.0 0.0 0.00 0.00 0.00 72 1016.1
20260510040039 51 142 0.0 0.0 0.00 0.00 0.00 72 1016.3
20260510034528 52 139 0.0 0.0 0.00 0.00 0.00 72 1016.2
20260510033027 52 143 0.0 0.0 0.00 0.00 0.00 72 1016.2
20260510031527 52 360 0.0 0.0 0.00 0.00 0.00 74 1016.3
20260510030026 53 360 0.0 0.0 0.00 0.00 0.00 73 1016.1
20260510024526 53 360 0.0 0.0 0.00 0.00 0.00 73 1016.1
20260510023026 53 360 0.0 0.0 0.00 0.00 0.00 73 1016.0
20260510021537 53 134 0.0 0.0 0.00 0.00 0.00 73 1016.0
20260510020024 54 360 0.0 0.0 0.00 0.00 0.00 73 1015.7
20260510014526 54 360 0.0 0.0 0.00 0.00 0.00 74 1015.7
20260510013026 54 360 0.0 0.0 0.00 0.00 0.00 74 1015.8
20260510011532 54 360 0.0 0.0 0.00 0.00 0.00 75 1015.5
20260510010022 54 138 0.0 0.0 0.00 0.00 0.00 76 1015.5
20260510004527 54 360 0.0 0.0 0.00 0.00 0.00 78 1015.4
20260510003021 55 360 0.0 0.0 0.00 0.00 0.00 79 1015.2
20260510001520 55 360 0.0 0.0 0.00 0.00 0.00 80 1015.1
20260510000028 55 135 0.0 0.0 0.00 0.00 0.00 80 1014.9
20260509234520 56 138 0.0 0.0 0.00 0.00 0.00 80 1014.9
20260509233019 56 139 0.0 0.0 0.00 0.00 0.00 80 1014.9
20260509231518 57 172 0.0 0.0 0.00 0.00 0.00 80 1014.9
20260509230018 57 228 0.0 0.0 0.00 0.00 0.00 80 1015.0
20260509224518 57 360 0.0 0.0 0.00 0.00 0.00 79 1014.8
20260509223017 57 270 0.0 0.0 0.00 0.00 0.00 79 1014.7
20260509221518 57 273 0.0 0.0 0.00 0.00 0.00 80 1014.7
20260509220019 57 273 0.0 0.0 0.00 0.00 0.00 80 1014.8
20260509214513 56 292 0.0 0.0 0.00 0.00 0.00 80 1015.2
20260509213024 56 285 0.0 0.0 0.00 0.00 0.00 80 1015.1
20260509211511 55 296 0.0 0.0 0.00 0.00 0.00 79 1015.0
20260509210011 55 296 0.0 0.0 0.00 0.00 0.00 79 1015.0
20260509204509 56 296 0.0 0.0 0.00 0.00 0.00 80 1015.3
20260509203015 56 285 0.0 0.0 0.00 0.00 0.00 80 1015.5
20260509201507 56 264 0.0 0.0 0.00 0.00 0.00 79 1015.5
20260509200007 55 360 0.0 0.0 0.00 0.00 0.00 78 1015.4
20260509194505 55 204 0.0 0.0 0.00 0.00 0.00 74 1015.4
20260509193004 54 203 0.0 0.0 0.00 0.00 0.00 73 1015.7
20260509191503 54 203 0.0 0.0 0.00 0.00 0.00 73 1015.8
20260509190001 53 204 0.0 0.0 0.00 0.00 0.00 74 1015.8
20260509184503 53 302 0.0 0.0 0.00 0.00 0.00 75 1016.4
20260509183103 53 301 0.0 0.0 0.00 0.00 0.00 76 1016.7
20260509181601 53 304 0.0 0.0 0.00 0.00 0.00 75 1016.5
20260509180104 53 303 0.0 0.0 0.00 0.00 0.00 76 1016.7
20260509174621 53 304 0.0 0.0 0.00 0.00 0.00 76 1016.7
20260509173056 53 304 0.0 0.0 0.00 0.00 0.00 77 1016.8
20260509171552 53 313 0.0 0.0 0.00 0.00 0.00 76 1016.7
20260509170054 53 332 0.0 0.0 0.00 0.00 0.00 77 1016.3
20260509164553 53 315 0.0 0.0 0.00 0.00 0.00 78 1016.4
20260509163056 54 282 0.0 0.0 0.00 0.00 0.00 80 1016.4
20260509161551 55 360 0.0 0.0 0.00 0.00 0.00 80 1016.8
20260509160050 55 213 0.0 0.0 0.00 0.00 0.00 79 1017.1
20260509154549 56 360 0.0 0.0 0.00 0.00 0.00 77 1017.3
20260509153056 57 216 0.0 0.0 0.00 0.00 0.00 76 1017.4
20260509151545 57 212 0.0 0.0 0.00 0.00 0.00 76 1017.3
20260509150042 57 141 0.0 0.0 0.00 0.00 0.00 77 1017.2
20260509144540 56 182 0.0 0.0 0.00 0.00 0.00 78 1017.1
20260509143040 56 161 0.0 0.0 0.00 0.00 0.00 78 1017.0
20260509141536 56 176 0.0 0.0 0.00 0.00 0.00 79 1016.6
20260509140034 55 178 0.0 0.0 0.00 0.00 0.00 79 1016.6
20260509134532 55 173 0.0 0.0 0.00 0.00 0.00 79 1016.6
20260509133032 54 172 0.0 0.0 0.00 0.00 0.00 79 1016.6
20260509131529 54 167 0.0 0.0 0.00 0.00 0.00 79 1016.5
20260509130036 53 360 0.0 0.0 0.00 0.00 0.00 79 1016.6
20260509124530 53 136 0.0 0.0 0.00 0.00 0.00 79 1016.5
20260509123025 52 360 0.0 0.0 0.00 0.00 0.00 79 1016.5
20260509121634 52 360 0.0 0.0 0.00 0.00 0.00 79 1016.7
20260509120024 52 149 0.0 0.0 0.00 0.00 0.00 79 1016.7
20260509114523 52 148 0.0 0.0 0.00 0.00 0.00 78 1016.8
20260509113025 52 360 0.0 0.0 0.00 0.00 0.00 78 1016.8
20260509111520 52 360 0.0 0.0 0.00 0.00 0.00 78 1016.6
20260509110020 51 147 0.0 0.0 0.00 0.00 0.00 78 1016.4
20260509104520 51 144 0.0 0.0 0.00 0.00 0.00 78 1016.1
20260509103021 51 145 0.0 0.0 0.00 0.00 0.00 77 1016.2
20260509101524 51 147 0.0 0.0 0.00 0.00 0.00 77 1016.2
20260509100022 51 147 0.0 0.0 0.00 0.00 0.00 77 1016.1
20260509094516 51 153 0.0 0.0 0.00 0.00 0.00 77 1016.1
20260509093017 51 152 0.0 0.0 0.00 0.00 0.00 77 1016.3
20260509091513 51 155 0.0 0.0 0.00 0.00 0.00 77 1016.5
20260509090020 51 153 0.0 0.0 0.00 0.00 0.00 77 1016.4
20260509084515 51 153 0.0 0.0 0.00 0.00 0.00 76 1016.5
20260509083028 51 150 0.0 0.0 0.00 0.00 0.00 76 1016.8
20260509081511 51 150 0.0 0.0 0.00 0.00 0.00 75 1016.9
20260509080008 51 360 0.0 0.0 0.00 0.00 0.00 74 1017.0
20260509074506 51 148 0.0 0.0 0.00 0.00 0.00 74 1017.0
20260509073005 52 150 0.0 0.0 0.00 0.00 0.00 72 1017.0
20260509071503 52 138 0.0 0.0 0.00 0.00 0.00 73 1016.9
20260509070004 52 132 0.0 0.0 0.00 0.00 0.00 71 1016.8
20260509064503 53 126 0.0 0.0 0.00 0.00 0.00 69 1016.7
20260509063003 53 130 0.0 0.0 0.00 0.00 0.00 68 1016.9
20260509061604 53 126 0.0 0.0 0.00 0.00 0.00 67 1017.0
20260509060108 53 133 0.0 0.0 0.00 0.00 0.00 68 1017.6
20260509054601 52 123 0.0 0.0 0.00 0.00 0.00 69 1017.7
20260509053123 52 166 0.0 0.0 0.00 0.00 0.00 71 1017.8
20260509051555 52 165 0.0 0.0 0.00 0.00 0.00 71 1017.8
20260509050054 52 166 0.0 0.0 0.00 0.00 0.00 70 1017.8
20260509044631 52 166 0.0 0.0 0.00 0.00 0.00 70 1017.7